CZ-6A DEB, 55214

Orbit data source: Space-Track

CZ-6A DEB, 55214 is space debris in SSO originally from a launch on Fri, 11 Nov 2022 UTC launched from the Taiyaun Space Center, China (TSC). Debris objects in space refer to the collection of defunct objects orbiting the Earth. Examples of debris include non-operational satellites, rocket bodies, and fragments generated from explosions, collisions, or faulty payload assembly.

Loading next visibility...
Identifier
55214, 2022-151WF
Orbit
SSO
Country
Flag of CNCN / PRC
Related business
Manufacturer
SAST
Mission
Spacecraft
Bus & Motor
Unknown
Mass
Unknown
Launch date (UTC)
2022-11-11 (4 years ago)
Launch vehicle
Unknown
Launch site
Taiyaun Space Center, China (TSC)
Object type
Payload
Rocket body
Debris
Shape & HBR
Unknown shape, 0.1 m
Radar Cross Section
Small (<0.1 m²)

Expand to show TLE details & history
Last TLE update: 3 days ago

TLE from 3 days ago
0 CZ-6A DEB
1 55214U 22151WF  26170.07387335  .00005659  00000-0  83739-3 0  9998
2 55214  98.4312 218.7660 0100315 210.9363 148.5910 14.72199034185822
Epoch: 2026-06-19T01:46Z
TLE epoch observation values (Epoch: 2026-06-19T01:46:22.657Z)
Latitude
-0.00002°
Longitude
-75.13648°
Altitude
717.46 km
Speed
7.465 km/s
True Right ascension
14h 35m 03s
True Declination
0° 00' 00"
Sunlit
Object was in full shadow at epoch
Visualization orbit readout
Latitude
Unknown
Longitude
Unknown
Altitude
Unknown
Speed
Unknown
Apparent Right ascension
Unknown
Apparent Declination
Unknown
Sunlit
N/A
Visualization observer readout
Local Sidereal Time
21:32:00
Azimuth
Unknown
Elevation
Unknown
Doppler factor
Unknown
Orbital elements
Apogee altitude
721.646 km
Perigee altitude
580.618 km
Semi-major axis
7,029.269 km
Eccentricity
0.01003
Inclination
98.4312°
RAAN
218.766°
Arg. of periapsis
210.9363°
True anomaly
149.18371°
Mean anomaly
148.591°
Eccentric anomaly
148.88799°
Mean motion
3.6828 °/min
Orbital period
97.75 mins
BSTAR
0.00083739
Loading maneuver chart data...
Computing Atmospheric mass density...
Loading historical data...
Loading historical data...
Loading historical data...
Loading historical data...
Loading historical data...
Loading historical data...
Loading historical data...

Documentation

Showing up to 5 results
|